Wind_Speed
25 25 20 20 23 24 23 23 24 25 25 25 24 24 22 20 18 17 16 17 16 15 16 14 14 16 14 14 17 18 19 15
36 36 17 15 20 21 23 23 25 25 24 23 22 20 18 16 15 14 15 15 16 15 15 15 14 10 12 14 15 17 16 15
34 26 21 23 23 22 23 24 25 24 23 22 20 19 17 14 13 13 15 17 15 13 13 11 10 11 13 14 14 15 14 16
31 26 29 28 26 25 25 26 26 25 21 20 17 16 15 14 14 14 14 12 11 12 11 11 9 9 11 13 12 12 12 13
27 26 27 27 27 26 26 24 24 21 17 15 13 12 12 13 14 14 13 11 14 11 8 7 8 8 10 11 12 12 11 13
25 28 27 26 27 27 26 24 21 17 13 11 12 11 11 11 13 12 15 14 12 7 7 7 7 10 11 12 13 12 13 14
28 28 27 26 26 26 26 23 19 16 14 13 14 14 15 14 20 19 15 11 6 4 5 7 8 10 10 11 12 12 12 15
33 29 29 27 28 25 24 19 19 18 16 15 17 17 18 20 19 15 12 7 6 6 8 9 10 9 10 11 12 13 14 16
34 32 30 27 26 22 21 24 22 20 15 14 14 15 17 17 15 12 9 6 5 6 6 8 9 10 9 9 11 15 15 18
31 32 29 27 26 27 27 24 20 16 14 13 13 14 15 14 11 9 9 6 5 5 7 8 8 8 7 7 9 13 12 13
32 31 32 32 31 29 25 20 17 16 14 13 13 15 13 11 11 10 8 6 3 5 5 6 9 8 8 5 11 12 9 9
36 33 34 32 30 26 21 18 16 13 12 14 15 15 15 13 11 10 8 6 2 3 4 6 11 7 7 5 10 11 4 11
38 37 35 33 30 25 20 18 16 13 12 16 17 16 14 12 12 10 8 4 2 3 4 7 9 10 5 16 12 3 12 4
40 38 36 33 30 26 20 17 15 14 16 19 19 16 12 11 9 12 7 2 1 1 4 6 6 12 9 9 3 8 2 13
41 40 37 32 27 22 15 16 13 17 20 21 20 16 12 10 8 6 6 3 2 0 3 7 7 10 11 5 3 3 5 7
38 39 34 30 26 22 21 25 24 23 26 23 20 18 13 12 10 11 8 7 3 2 6 9 10 12 12 11 14 15 3 4
40 35 31 28 28 25 25 24 27 24 24 23 24 21 15 15 13 9 9 6 1 4 8 10 12 13 14 15 15 13 10 4
37 33 33 29 30 28 28 27 26 22 25 25 25 20 15 13 11 10 6 3 5 7 9 12 13 14 15 14 10 7 4 4
35 36 34 31 33 31 29 27 26 26 30 29 26 18 16 14 6 1 2 5 7 8 10 11 10 8 7 6 6 7 8 9
30 33 31 31 32 31 31 27 27 28 32 28 21 20 14 7 7 6 2 4 8 12 11 7 7 9 8 9 8 8 7 8
Wind_Direction
96 97 110 121 136 140 139 136 133 131 128 127 124 119 116 113 106 101 95 87 81 76 75 68 70 56 43 39 32 31 33 40
112 110 131 150 147 142 141 141 135 131 129 126 124 120 117 114 106 99 92 87 84 81 73 70 62 59 36 18 17 20 16 27
123 142 168 167 156 149 147 141 132 133 135 131 126 122 115 118 108 105 104 96 91 85 87 73 62 46 37 23 18 17 13 8
157 174 179 163 159 156 149 144 145 141 137 134 132 132 114 120 116 111 106 105 102 107 96 84 61 45 36 25 23 24 24 7
175 177 173 167 161 157 154 150 143 146 150 140 144 150 137 136 133 128 126 126 118 125 108 74 48 41 40 41 28 23 12 1
182 182 175 172 164 158 152 154 153 155 155 176 176 176 162 144 145 146 139 128 121 103 72 57 45 41 36 32 21 11 7 15
186 179 177 172 164 160 160 162 164 160 160 160 168 155 149 148 146 140 141 126 115 77 45 39 26 19 16 12 22 10 358 353
173 180 177 173 170 170 168 172 173 169 175 171 157 153 151 151 148 144 135 119 93 59 49 42 25 18 24 27 26 7 1 347
181 183 179 174 173 181 185 178 177 180 176 175 173 166 164 156 149 137 121 105 76 52 41 11 28 29 26 18 4 8 6 1
174 177 178 183 187 177 173 176 180 172 168 166 166 170 165 154 149 141 123 98 74 53 13 36 44 26 29 10 357 4 350 20
170 172 170 170 170 171 176 178 171 164 159 161 170 172 167 166 145 128 120 111 86 24 44 53 14 12 360 341 352 352 347 29
173 172 170 170 170 170 168 167 162 160 161 158 162 162 155 145 135 138 132 134 92 34 70 11 358 349 338 329 334 334 34 333
179 176 176 177 175 174 173 176 177 174 171 168 168 166 161 154 144 136 153 165 67 77 359 349 0 357 344 341 330 166 323 281
180 182 181 185 187 188 189 193 200 195 180 172 172 173 165 159 152 157 170 210 183 329 346 358 353 357 351 342 355 307 220 316
185 188 188 192 192 186 192 194 187 182 183 182 178 177 173 182 190 222 225 246 180 17 11 8 357 347 351 351 340 252 297 307
186 189 190 192 190 193 200 184 172 191 187 183 182 181 189 198 197 190 187 178 195 330 344 346 349 339 333 325 310 283 233 302
189 188 194 199 197 201 198 193 193 190 189 191 188 189 198 192 185 184 178 178 181 332 334 342 342 333 325 318 309 278 266 243
186 193 195 198 201 204 205 199 196 195 195 194 188 191 195 188 181 181 180 247 302 325 336 336 336 319 313 311 296 264 246 268
192 193 196 201 204 204 207 203 205 205 200 195 189 183 163 153 160 21 311 319 332 336 331 332 329 336 345 334 319 289 272 281
191 194 197 196 203 208 209 205 211 209 204 194 180 157 157 182 188 218 245 325 327 330 333 349 339 329 318 314 316 299 290 286
Height
814 818 829 830 833 835 838 841 840 842 843 846 848 849 850 853 854 856 858 859 861 861 861 863 864 865 867 865 865 864 863 863
824 828 833 839 840 837 840 843 841 842 846 847 849 850 852 854 856 859 861 863 863 864 864 866 867 868 867 866 865 865 864 863
828 834 838 840 839 840 843 843 841 845 847 848 849 850 853 856 858 860 863 864 865 865 866 867 868 868 867 867 866 865 865 864
829 834 840 837 839 841 841 841 843 844 849 847 851 853 855 857 859 863 864 865 866 867 868 867 868 868 867 867 866 865 865 865
832 837 839 838 837 839 842 843 844 845 849 851 852 857 856 859 858 861 863 866 865 867 867 868 868 868 867 867 867 866 865 865
832 837 838 838 838 838 840 843 845 847 848 852 854 857 858 859 859 862 864 864 866 868 867 867 869 868 867 867 865 867 865 865
831 834 835 836 836 838 841 844 845 848 850 851 854 856 856 859 860 861 863 863 865 867 867 866 868 868 868 866 866 867 865 864
829 832 834 835 837 839 841 844 846 849 850 853 854 854 856 859 860 863 862 862 864 866 866 868 868 868 867 866 866 866 865 863
826 829 832 834 838 840 843 844 847 848 850 852 853 854 856 858 859 862 861 861 862 866 868 868 867 867 866 866 866 865 864 863
826 829 831 834 837 840 843 845 846 847 849 853 853 855 856 857 860 861 858 861 864 868 869 866 866 866 866 866 865 865 864 863
822 827 829 833 837 840 842 845 846 848 850 851 852 854 855 857 858 858 859 862 865 867 866 864 865 865 865 864 864 864 863 862
820 825 829 833 838 840 842 844 844 846 848 850 852 854 856 856 857 859 859 862 865 865 864 864 864 863 863 862 861 860 861 861
817 822 826 829 833 835 838 840 843 844 847 849 853 855 856 856 857 857 860 863 863 863 864 864 863 861 859 858 856 857 859 859
816 819 823 826 829 831 834 838 841 844 847 850 853 854 854 854 855 857 859 860 860 862 862 861 861 860 859 857 857 856 855 857
812 815 819 823 827 831 834 838 842 844 846 849 851 853 853 853 854 856 858 858 860 860 859 859 860 860 859 860 859 858 853 851
810 813 817 821 826 829 831 833 836 839 842 845 848 850 851 851 851 853 854 856 857 857 857 857 856 858 857 857 856 854 854 849
806 812 816 820 824 827 830 831 833 836 840 843 845 847 848 849 851 853 853 854 854 854 854 854 854 855 854 852 851 850 849 849
805 809 813 817 822 825 826 827 830 834 838 841 845 846 847 848 849 851 851 852 852 852 852 851 851 852 851 850 848 847 846 845
800 804 807 812 817 820 822 824 827 830 834 838 841 844 847 847 852 853 852 853 853 852 850 848 848 850 849 847 846 846 845 843
799 800 804 808 813 816 819 823 826 829 831 835 838 841 844 847 846 850 849 851 850 849 848 846 847 849 848 846 845 844 842 842